This demonstration page uses our WeatherBlox Daily Observations layout. Learn more.

Left ArrowRight Arrow

44.8408, -93.29828

Hourly Observations for September 9, 2019

Temp ( °F °C ) Dew Point ( °F °C ) Humidity (%) Winds ( mph kmh ) Pressure ( in mb ) Visibility ( mi km ) Precip ( " mm )
12:53 am 00:53 Cloudy 59 15 53 11.7 81 81 SE 10 17 30.14 1021 10 16 0.00 0.00
1:17 am 01:17 Cloudy 59 15 53 11.7 81 81 SE 10 17 30.13 1020 10 16 0.00 0.00
1:53 am 01:53 Cloudy 59 15 54 12.2 83 83 ESE 12 19 30.13 1020 10 16 0.00 0.00
2:07 am 02:07 Cloudy 59 15 54 12.2 83 83 ESE 14 22 30.12 1020 10 16 0.00 0.00
2:53 am 02:53 Cloudy 59 15 53 11.7 81 81 ESE 10 17 30.12 1020 10 16 0.00 0.00
3:53 am 03:53 Cloudy 59 15 54 12.2 83 83 SE 15 24 30.11 1020 10 16 0.00 0.00
4:53 am 04:53 Cloudy 59 15 54 12.2 83 83 ESE 13 20 30.11 1020 10 16 0.00 0.00
5:53 am 05:53 Cloudy 59 15 54 12.2 83 83 ESE 13 20 30.09 1019 10 16 0.00 0.00
6:53 am 06:53 Cloudy 59 15 54 12.2 83 83 SE 12 19 30.09 1019 10 16 0.00 0.00
7:53 am 07:53 Cloudy 59 15 55 12.8 87 87 ESE 14 22 30.09 1019 10 16 0.00 0.00
8:53 am 08:53 Cloudy 59 15 55 12.8 87 87 E 16 26 30.07 1018 10 16 0.00 0.00
9:09 am 09:09 Cloudy 60 15.6 54 12.2 80 80 E 15 24 30.06 1018 10 16 0.00 0.00
9:53 am 09:53 Cloudy 60 15.6 54 12.2 80 80 E 18 30 30.04 1017 10 16 0.00 0.00
10:53 am 10:53 Cloudy 60 15.6 54 12.2 80 80 ESE 16 26 30.06 1018 10 16 0.00 0.00
11:31 am 11:31 Cloudy with Nearby Thunderstorms 60 15.6 55 12.8 84 84 ESE 18 30 30.04 1017 3 4 0.00 0.00
11:33 am 11:33 Cloudy with Nearby Thunderstorms 60 15.6 56 13.3 86 86 ESE 16 26 30.03 1017 2 3 0.00 0.00
11:37 am 11:37 Cloudy with Nearby Thunderstorms 59 15 56 13.3 90 90 SE 15 24 30.03 1017 1 2 0.01 0.25
11:43 am 11:43 Cloudy with Light Rain 59 15 56 13.3 90 90 ESE 17 28 30.02 1017 2 3 0.01 0.25
11:51 am 11:51 Cloudy with Light Rain 59 15 57 14 94 94 ESE 18 30 30.02 1017 3 4 0.02 0.51
11:53 am 11:53 Cloudy with Light Rain 59 15 57 13.9 93 93 ESE 17 28 30.03 1017 3 4 0.02 0.51
11:57 am 11:57 Cloudy with Nearby Thunderstorms 59 15 57 13.9 93 93 ESE 15 24 30.02 1017 2 3 0.00 0.00
12:09 pm 12:09 Cloudy with Nearby Thunderstorms 59 15 57 13.9 93 93 ESE 15 24 30.01 1016 7 11 0.01 0.25
12:31 pm 12:31 Cloudy with Light Rain 59 15 57 13.9 93 93 ESE 17 28 30.00 1016 10 16 0.03 0.76
12:39 pm 12:39 Cloudy 59 15 57 13.9 93 93 SE 13 20 30.01 1016 9 14 0.03 0.76
12:53 pm 12:53 Cloudy with Nearby Thunderstorms 59 15 57 13.9 93 93 ESE 16 26 30.02 1017 10 16 0.03 0.76
1:13 pm 13:13 Cloudy 60 15.6 57 13.9 90 90 ESE 18 30 29.98 1015 10 16 0.00 0.00
1:53 pm 13:53 Cloudy with Nearby Thunderstorms 60 15.6 58 14.4 93 93 SE 14 22 29.98 1015 10 16 0.00 0.00
2:29 pm 14:29 Cloudy with Nearby Thunderstorms 61 16.1 58 14.4 90 90 SE 15 24 29.95 1014 10 16 0.00 0.00
2:45 pm 14:45 Cloudy 61 16.1 58 14.4 90 90 SE 13 20 29.95 1014 10 16 0.00 0.00
2:53 pm 14:53 Cloudy 62 16.7 58 14.4 86 86 SE 14 22 29.95 1014 10 16 0.00 0.00
3:37 pm 15:37 Cloudy with Light Rain 62 16.7 59 15 90 90 ESE 18 30 29.90 1012 8 13 0.02 0.51
3:53 pm 15:53 Cloudy with Light Rain 62 16.7 59 15 90 90 ESE 18 30 29.90 1012 8 13 0.03 0.76
4:15 pm 16:15 Cloudy 62 16.7 59 15 90 90 SE 8 13 29.92 1013 10 16 0.00 0.00
4:53 pm 16:53 Cloudy 62 16.7 59 15 90 90 SE 14 22 29.91 1013 7 11 0.00 0.00
5:10 pm 17:10 Cloudy with Light Rain 62 16.7 60 15.6 93 93 SE 12 19 29.90 1012 3 4 0.00 0.00
5:20 pm 17:20 Cloudy with Light Rain 62 16.7 60 15.6 93 93 SSE 10 17 29.91 1013 2 3 0.00 0.00
5:26 pm 17:26 Cloudy with Heavy Rain 62 16.7 60 15.6 93 93 ESE 15 24 29.88 1012 1 2 0.02 0.51
5:35 pm 17:35 Cloudy with Rain 62 16.7 60 15.6 93 93 ESE 16 26 29.86 1011 2 3 0.08 2.03
5:39 pm 17:39 Cloudy with Rain 62 16.7 61 16.1 96 96 ESE 16 26 29.87 1011 3 5 0.09 2.29
5:53 pm 17:53 Cloudy with Light Rain 63 17.2 61 16.1 93 93 ESE 14 22 29.86 1011 5 8 0.11 2.79
6:44 pm 18:44 Cloudy with Mist and Fog 63 17.2 61 16.1 93 93 SE 13 20 29.84 1010 3 5 0.00 0.00
6:53 pm 18:53 Cloudy with Mist and Fog 63 17.2 62 16.7 97 97 SE 10 17 29.85 1011 3 4 0.00 0.00
7:20 pm 19:20 Cloudy with Mist and Fog 64 17.8 62 16.7 93 93 SE 12 19 29.83 1010 3 5 0.00 0.00
7:53 pm 19:53 Cloudy with Mist and Fog 64 17.8 63 17.2 96 96 SE 12 19 29.82 1010 5 8 0.00 0.00
8:17 pm 20:17 Cloudy with Mist and Fog 65 18.3 63 17.2 93 93 SE 10 17 29.80 1009 6 10 0.00 0.00
8:53 pm 20:53 Cloudy 66 18.9 64 17.8 93 93 SE 10 17 29.81 1010 7 11 0.00 0.00
9:43 pm 21:43 Cloudy 67 19.4 64 17.8 91 91 SE 12 19 29.79 1009 7 11 0.00 0.00
9:53 pm 21:53 Cloudy 67 19.4 65 18.3 93 93 SE 9 15 29.80 1009 7 11 0.00 0.00
10:39 pm 22:39 Cloudy 68 20 65 18.3 90 90 SSE 9 15 29.78 1008 7 11 0.00 0.00
10:53 pm 22:53 Cloudy 68 20 66 18.9 93 93 S 8 13 29.80 1009 8 13 0.00 0.00
11:11 pm 23:11 Cloudy 68 20 66 18.9 93 93 S 3 6 29.79 1009 8 13 0.00 0.00
11:53 pm 23:53 Mostly Cloudy 69 20.6 66 18.9 90 90 S 7 11 29.80 1009 8 13 0.00 0.00

Powered by AerisWeather